WESTFORD NEEDLES, 2381

Orbit data source: Space-Track

WESTFORD NEEDLES, 2381 is space debris in LEO originally from a launch on Thu, 09 May 1963 UTC launched from the Air Force Western Test Range (AFWTR). Debris objects in space refer to the collection of defunct objects orbiting the Earth. Examples of debris include non-operational satellites, rocket bodies, and fragments generated from explosions, collisions, or faulty payload assembly.

Loading next visibility...
WESTFORD NEEDLES details
Identifier
2381, 1963-014AB
Orbit
LEO
Last TLE update2 days ago
Origin
Flag of USUSAF SSD (US)
ManufacturerUnknown
MissionSpacecraft
Bus & MotorUnknown
MassUnknown
Launch date (UTC)
1963-05-09 (62 years ago)
Launch vehicleUnknown
Launch site
Air Force Western Test Range (AFWTR)
Object type
Payload
Rocket body
Debris
Shape & HBRUnknown
Radar Cross SectionMedium (>0.1 m² and <1 m²)

Expand to show TLE details & history

TLE from 2 days ago
0 WESTFORD NEEDLES
1 02381U 63014AB  25012.37167681 -.00001353  00000-0 -59037+0 0  9994
2 02381  87.2909 148.1598 0319820  89.3914 274.3572  8.67539366346101
Epoch: 2025-01-12T08:55Z
Definitive object data (Epoch: 2025-01-12T08:55:12.876Z)
Latitude-0.0001°
Longitude-97.75189°
Altitude3,614.764 km
Speed6.321 km/s
True Right ascension09h 52m 38s
True Declination0° 00' 00"
Sunlit
Object was in partial shadow at TLE epoch
Visualization TLE readout
Latitude-42.62512°
Longitude84.53656°
Altitude3,864.535 km
Speed6.169 km/s
Apparent Right ascension22h 06m 25s
Apparent Declination-41° 26' 55"
Sunlit
Object is in daylight
Visualization observer readout
Local Sidereal Time10:13:33
Azimuth139.142° SSE
Elevation-87.956°
Doppler factor1
Orbital elements
Apogee altitude3,944.399 km
Perigee altitude3,304.59 km
Semi-major axis10,002.632 km
Eccentricity0.031982
Inclination87.2909°
RAAN148.1598°
Arg. of periapsis89.3914°
True anomaly270.69429°
Mean anomaly274.3572°
Eccentric anomaly272.52655°
Mean motion2.16956 °/min
BSTAR-0.59037
Orbital period165.93 mins
Loading maneuver chart data...

WESTFORD NEEDLES Visibility forecast

Observer location: undefined°, undefined

Span
Click to sort rows by Start time (UTC) header in descending order
Start Az.
Max El. time (UTC)
Max El. Az.
Max El.
End time (UTC)
End Az.
32 mins2025-01-14 10:46:36.101Z216.595° SW2025-01-14 11:02:36.101Z282.92° WNW34.33°2025-01-14 11:18:36.101Z354.135° N
33 mins2025-01-14 19:47:36.101Z4.127° NNE2025-01-14 20:03:36.101Z84.957° E40.367°2025-01-14 20:20:36.101Z158.902° S
29 mins2025-01-14 22:34:36.101Z346.904° N2025-01-14 22:48:36.101Z285.415° WNW32.992°2025-01-14 23:03:36.101Z226.447° WSW
19 mins2025-01-15 06:18:36.101Z94.733° ESE2025-01-15 06:28:36.101Z56.954° ENE18.607°2025-01-15 06:37:36.101Z22.693° NE
33 mins2025-01-15 08:53:36.101Z172.299° S2025-01-15 09:10:36.101Z65.019° ENE44.831°2025-01-15 09:26:36.101Z3.003° NNE
|